{"data":{"norad_id":44209,"intl_designator":"2019-024C","name":"TIANHUI 2-01B","alt_names":[],"object_type":"PAYLOAD","status":"ACTIVE","operator":null,"country":"PRC","launch_date":"2019-04-29","launch_site_code":"TAISC","launch_vehicle":null,"mission":null,"orbit_class":"UNKNOWN","rcs_meters":null,"size_class":null,"mass_kg":null,"dimensions":null,"purposes":[],"wikipedia_slug":null,"has_3d_model":false,"image_url":null,"decayed_at":null,"tle_current":{"epoch":"2026-09-19T13:35:17.527776Z","epoch_age_seconds":139066,"freshness":"FRESH","line1":"1 44209U 19024C   26262.56617509  .00001099  00000+0  59427-4 0  9991","line2":"2 44209  97.4851 265.2662 0002017  91.7185 268.4279 15.16759906409016","mean_motion":15.16759906,"eccentricity":0.0002017,"inclination_deg":97.4851,"raan_deg":265.2662,"arg_perigee_deg":91.7185,"mean_anomaly_deg":268.4279,"bstar":5.9427e-5,"rev_number":40901,"period_min":94.939218415759,"perigee_km":514.25032787556,"apogee_km":517.03127784124,"semimajor_km":6893.7778028584,"source":"CELESTRAK","updated_at":"2026-09-20T09:00:14.455182Z"}}}